Weather in Ynakhsyt

Russia / Sakha (Yakutia) Republic     63°34′03″N   119°12′29″E
temp.,
°C
wind,
m/s
gust,
m/s
humid.,
%
clouds,
%
prec.,
mm/h
press.,
hPa
HPBL,
m
26 february, fri
fri2600:00−31ene129896 0.1 103619
03:00−33e229992 0.1 103519
06:00−33e229898 0.0 103542
09:00−34e359995 0.0 1034123
12:00−29e359573 0.0 1033294
15:00−27ene369578 0.0 1030328
18:00−28ene3895100 0.0 1029304
21:00−29e3995100 0.0 1029264
27 february, sat
sat2700:00−31ene369773 0.0 1027136
03:00−32ene239961 0.0 102770
06:00−33e229936 0.0 102719
09:00−32ene249867 0.0 102698
12:00−28ene2396100 0.0 1025222
15:00−26ne1294100 0.0 1024314
18:00−27ne1297100 0.0 102568
21:00−27n1299100 0.3 102691
28 february, sun
sun2800:00−28nnw1399100 0.3 1025100
03:00−28nw2499100 0.6 1025169
06:00−28wnw2598100 0.3 1026222
09:00−29w2698100 0.4 1026282
12:00−27w3794100 0.1 1027502
15:00−25w4793100 0.3 1027652
18:00−25w4894100 0.1 1028600
21:00−26w3895100 0.1 1029461
1 march, mon
mon100:00−28w3895100 0.0 1029256
03:00−31wsw3895100 0.0 1030209
06:00−33wsw379593 0.0 1031138
09:00−35wsw379482 0.0 1031154
12:00−30w379289 0.0 1031332
15:00−27wsw369181 0.0 1030477
18:00−29wsw239599 0.0 103073
21:00−32wsw239887 0.0 103130
2 march, tue
tue200:00−35wsw229974 0.0 103119
03:00−36wsw229767 0.0 103022
06:00−38wsw229760 0.0 103123
09:00−39wsw229754 0.0 103134
12:00−33wsw239437 0.0 1030279
15:00−30w239256 0.0 1030417
18:00−32wsw129695 0.0 103019
21:00−36wsw119978 0.0 103119